Weather History for Fairbanks, AK

Change the Weather History Date:

Tuesday, February 1, 2011

  Actual Average Record
Temperature  
Mean Temperature 10 °F -6 °F  
Max Temperature 20 °F 3 °F 43 °F (1940)
Min Temperature -1 °F -16 °F -57 °F (1910)
Degree Days  
Heating Degree Days 55 71  
Month to date heating degree days 55 71  
Since 1 July heating degree days 8349 8603  
Cooling Degree Days 0 0  
Month to date cooling degree days 0 0  
Year to date cooling degree days 0 0  
Moisture  
Dew Point 8 °F    
Average Humidity 87    
Maximum Humidity 96    
Minimum Humidity 77    
Precipitation  
Precipitation 0.05 in 0.02 in 0.41 in (1977)
Month to date precipitation 0.05 0.02  
Year to date precipitation 0.24 0.60  
Snow  
Snow 0.30 in 0.30 in 9.50 in (1977)
Month to date snowfall 0.3 0.3  
Since 1 July snowfall 26.8 48.5  
Snow Depth 13.00 in    
Sea Level Pressure  
Sea Level Pressure 29.39 in    
Wind  
Wind Speed 1 mph (NNE)    
Max Wind Speed 6 mph    
Max Gust Speed -    
Visibility 9 miles    
Events Snow    
T = Trace of Precipitation, MM = Missing Value Source: NWS Daily Summary

Daily Weather History Graph

Daily Weather History Graph

Search for Another Location

Airport:

Trip Planner

Search our weather history database for the weather conditions in past years. The results will help you decide how hot, cold, wet, or windy it might be!

Date:

Astronomy

Feb. 01, 2011 Rise Set
Actual Time 9:37 AM AKST 4:34 PM AKST
Civil Twilight 8:38 AM AKST 5:33 PM AKST
Nautical Twilight 7:37 AM AKST 6:33 PM AKST
Astronomical Twilight 6:40 AM AKST 7:30 PM AKST
Moon 9:04 AM AKST (2/1) 3:21 PM AKST (2/1)
Length of Visible Light 8h 54m
Length of Day
6h 57m
Waning Crescent, 1% of the Moon is Illuminated
Feb 1
Waning Crescent
Feb 2
New
Feb 10
First Quarter
Feb 17
Full
Feb 24
Last Quarter

Hourly Weather History & Observations

Time (AKST) Temp. Windchill Dew Point Humidity Pressure Visibility Wind Dir Wind Speed Gust Speed Precip Events Conditions
12:53 AM 12.0 °F - 8.1 °F 84% 29.51 in 10.0 mi Calm Calm - N/A   Overcast
1:53 AM 12.9 °F - 9.0 °F 84% 29.48 in 10.0 mi Calm Calm - 0.02 in   Overcast
2:53 AM 14.0 °F - 10.9 °F 88% 29.44 in 10.0 mi Calm Calm - N/A   Overcast
3:12 AM 14.0 °F - 10.4 °F 86% 29.40 in 2.0 mi Calm Calm - 0.00 in Snow Light Snow
3:53 AM 15.1 °F - 12.0 °F 88% 29.40 in 1.5 mi Calm Calm - 0.02 in Snow Light Snow
4:37 AM 14.0 °F - 12.2 °F 93% 29.32 in 6.0 mi Calm Calm - 0.01 in Snow Light Snow
4:53 AM 15.1 °F 9.4 °F 12.0 °F 88% 29.36 in 7.0 mi North 3.5 mph - 0.01 in Snow Light Snow
5:53 AM 16.0 °F 7.4 °F 12.9 °F 88% 29.32 in 9.0 mi NE 5.8 mph - 0.00 in   Overcast
6:25 AM 12.2 °F 2.9 °F 10.4 °F 92% 29.25 in 10.0 mi NNE 5.8 mph - N/A   Mostly Cloudy
6:53 AM 12.0 °F - 10.9 °F 95% 29.29 in 10.0 mi Calm Calm - N/A   Scattered Clouds
7:53 AM 14.0 °F 8.2 °F 12.0 °F 92% 29.27 in 10.0 mi NNW 3.5 mph - N/A   Mostly Cloudy
8:53 AM 10.9 °F - 10.0 °F 96% 29.28 in 10.0 mi Calm Calm - N/A   Mostly Cloudy
9:53 AM 5.0 °F - 3.0 °F 92% 29.30 in 10.0 mi Calm Calm - N/A   Mostly Cloudy
10:53 AM 9.0 °F - 6.1 °F 88% 29.32 in 10.0 mi Calm Calm - N/A   Mostly Cloudy
11:53 AM 8.1 °F - 5.0 °F 87% 29.34 in 10.0 mi Calm Calm - N/A   Mostly Cloudy
12:53 PM 17.1 °F - 12.0 °F 81% 29.37 in 10.0 mi Calm Calm - N/A   Mostly Cloudy
1:53 PM 17.1 °F 10.0 °F 12.9 °F 84% 29.39 in 10.0 mi SSE 4.6 mph - N/A   Mostly Cloudy
2:53 PM 16.0 °F 8.8 °F 10.9 °F 81% 29.41 in 10.0 mi SSW 4.6 mph - N/A   Mostly Cloudy
3:53 PM 16.0 °F - 10.0 °F 77% 29.42 in 10.0 mi Calm Calm - N/A   Mostly Cloudy
4:53 PM 15.1 °F - 10.0 °F 80% 29.44 in 10.0 mi Calm Calm - N/A   Mostly Cloudy
5:53 PM 14.0 °F - 9.0 °F 80% 29.45 in 10.0 mi Calm Calm - N/A   Overcast
6:53 PM 12.0 °F - 8.1 °F 84% 29.45 in 10.0 mi Calm Calm - N/A   Overcast
7:53 PM 10.0 °F - 7.0 °F 87% 29.46 in 10.0 mi Calm Calm - N/A   Mostly Cloudy
8:53 PM 5.0 °F - 3.0 °F 92% 29.47 in 10.0 mi Calm Calm - N/A   Mostly Cloudy
9:53 PM 6.1 °F - 3.9 °F 91% 29.48 in 10.0 mi Calm Calm - N/A   Mostly Cloudy
10:53 PM 1.0 °F - -2.0 °F 87% 29.49 in 10.0 mi Calm Calm - N/A   Mostly Cloudy
11:53 PM 1.0 °F - -2.9 °F 83% 29.51 in 10.0 mi Calm Calm - N/A   Mostly Cloudy